[[{"header":{"parameterUnit":"m.s-1","parameterCategory":2,"la1":30.2991,"la2":30.254,"lo1":-89.0895,"lo2":-89.0444,"dy":0.0017,"dx":0.0017,"nx":28,"ny":28,"refTime":"2024-07-02T03:00:00:Z","depth":"0","parameterNumber":2,"parameterNumberName":"U-component_of_CURRENTS"},"data":[0,0,0,0,0,0,0,0,0,0,0,0,0,0,0,0,0,0,0,0,0,0,0,0,0,0,0,0,0,0,0,0,0,0,0,0,0,0,0,0,0,0,0,0,0,0,0,0,0,0,0,0,0,0,0,0,0,0,-0.3629,-0.363,0,-0.3738,-0.3739,-0.374,-0.3838,-0.384,-0.3841,-0.3843,-0.3882,-0.3882,-0.3882,0,0,0,0,0,0,0,0,0,0,0,0,0,-0.3548,-0.3548,-0.3629,-0.363,-0.3632,-0.3738,-0.3739,-0.374,-0.3838,-0.384,-0.3842,-0.3843,-0.3882,-0.3882,-0.3882,0,0,0,0,0,0,0,0,0,0,0,0,0,-0.361,-0.3548,-0.3629,-0.3696,-0.3703,-0.3738,-0.3739,-0.3741,-0.3838,-0.384,-0.3842,-0.3844,-0.3883,-0.3882,-0.3882,-0.3836,0,0,-0.388,-0.388,0,0,0,0,0,0,0,0,-0.3606,-0.3612,-0.3684,-0.3691,-0.37,-0.3779,-0.3726,-0.377,-0.3837,-0.3784,-0.3843,-0.3845,-0.3842,-0.3845,-0.3857,-0.3838,-0.384,-0.388,-0.388,-0.388,-0.388,0,0,0,0,0,0,0,-0.3601,-0.3608,-0.3669,-0.3686,-0.3695,-0.3736,-0.3746,-0.3735,-0.3796,-0.3788,-0.3797,-0.3813,-0.3845,-0.3858,-0.3859,-0.384,-0.388,-0.388,-0.388,-0.388,-0.3684,-0.3679,0,0,0,0,0,0,-0.3589,-0.3604,-0.3666,-0.3673,-0.366,-0.3735,-0.3747,-0.3749,-0.3798,-0.3809,-0.3811,-0.3817,-0.3857,-0.3859,-0.3861,-0.3677,-0.388,-0.388,-0.3879,-0.3689,-0.3683,-0.3677,0,0,0,0,0,0,-0.3587,-0.3593,-0.3661,-0.3644,-0.3656,-0.3734,-0.3736,-0.375,-0.3762,-0.3816,-0.3825,-0.3809,-0.3859,-0.3861,-0.3805,-0.3684,-0.3879,-0.3879,-0.3694,-0.3687,-0.368,-0.3393,0,0,0,0,0,0,-0.3583,-0.3591,-0.3589,-0.3642,-0.3657,-0.3631,-0.3735,-0.3751,-0.377,-0.3779,-0.3816,-0.3823,-0.3861,-0.3804,-0.3804,-0.3687,-0.3879,-0.3701,-0.3691,-0.3682,-0.3409,-0.3377,-0.335,0,0,0,0,0,-0.358,-0.3556,-0.3587,-0.3596,-0.3651,-0.3627,-0.3634,-0.3699,-0.3768,-0.3727,-0.3756,-0.3822,-0.3746,-0.38,-0.3801,-0.3681,-0.3705,-0.3694,-0.3683,-0.3422,-0.3383,-0.335,0,0,0,0,0,0,-0.351,-0.3566,-0.3601,-0.3594,-0.3591,-0.3644,-0.3628,-0.3682,-0.368,-0.369,-0.3762,-0.3765,-0.3654,-0.3718,-0.3776,-0.3598,-0.3734,-0.3723,-0.3535,-0.3499,-0.347,-0.3419,-0.3878,0,0,0,0,0,-0.3496,-0.3499,-0.3532,-0.352,-0.351,-0.3569,-0.3577,-0.3606,-0.362,-0.3626,-0.365,-0.3659,-0.3607,-0.3599,-0.3567,-0.3488,-0.35,-0.3412,-0.3382,-0.3356,-0.3314,-0.3244,-0.3203,-0.3641,-0.3641,-0.3641,0,0,-0.3469,-0.3499,-0.3503,-0.3507,-0.3517,-0.3449,-0.3575,-0.3549,-0.3481,-0.3623,-0.353,-0.3541,-0.3557,-0.3438,-0.3399,-0.3483,-0.3228,-0.3342,-0.332,-0.3291,-0.3228,-0.3185,-0.3147,-0.3633,-0.3635,-0.3636,0,0,-0.3362,-0.3426,-0.3361,-0.3347,-0.3342,-0.3364,-0.3346,-0.3362,-0.3351,-0.3274,-0.3329,-0.3265,-0.3243,-0.3197,-0.3181,-0.2974,-0.3055,-0.2984,-0.2808,-0.2739,-0.2703,-0.2671,-0.2585,-0.2548,-0.2992,-0.2992,-0.2991,0,-0.3319,-0.3256,-0.333,-0.3243,-0.3217,-0.3308,-0.3195,-0.3181,-0.3174,-0.3134,-0.3199,-0.3089,-0.3103,-0.2936,-0.286,-0.2895,-0.2889,-0.2942,-0.2698,-0.2667,-0.2639,-0.2561,-0.2523,-0.2977,-0.2978,-0.298,-0.2981,0,-0.3133,-0.3093,-0.3044,-0.2974,-0.2945,-0.287,-0.2862,-0.2806,-0.2832,-0.2839,-0.2692,-0.2698,-0.2652,-0.2623,-0.2676,-0.2471,-0.2536,-0.2648,-0.2785,-0.2577,-0.2508,-0.2474,-0.2955,-0.296,-0.2965,-0.2968,0,0,-0.2985,-0.2927,-0.2901,-0.2843,-0.2802,-0.2752,-0.2615,-0.2517,-0.2434,-0.241,-0.2283,-0.2177,-0.2244,-0.2227,-0.2274,-0.2206,-0.1983,-0.2339,-0.2342,-0.2244,-0.1813,-0.1613,-0.1559,-0.2075,-0.2069,-0.2064,-0.1828,0,-0.2798,-0.2622,-0.2627,-0.2448,-0.2362,-0.2386,-0.2262,-0.22,-0.2172,-0.2074,-0.2061,-0.1969,-0.208,-0.2048,-0.1985,-0.2007,-0.1889,-0.2035,-0.2038,-0.2036,-0.1876,-0.151,-0.1284,-0.1034,-0.1796,-0.1791,-0.1787,0,-0.2584,-0.2507,-0.2317,-0.2218,-0.2172,-0.2083,-0.1936,-0.1828,-0.1733,-0.1714,-0.1647,-0.1691,-0.1567,-0.1708,-0.1587,-0.1693,-0.1692,-0.1705,-0.17,-0.1587,-0.1769,-0.1375,-0.0946,-0.0897,-0.1737,-0.1741,-0.1744,0,-0.245,-0.2284,-0.2146,-0.2108,-0.1998,-0.1901,-0.1826,-0.1722,-0.1621,-0.1495,-0.1437,-0.1363,-0.1304,-0.1305,-0.1351,-0.1468,-0.1219,-0.1411,-0.1194,-0.1185,-0.102,-0.1003,-0.0529,-0.1231,-0.1232,-0.1233,-0.1233,0,-0.2264,-0.2147,-0.2086,-0.2006,-0.1821,-0.179,-0.1591,-0.1503,-0.1387,-0.1242,-0.1267,-0.1122,-0.1201,-0.1119,-0.1203,-0.104,-0.1101,-0.1027,-0.1052,-0.0908,-0.0884,-0.0871,-0.0927,-0.1224,-0.1226,-0.1228,-0.1229,0,-0.2134,-0.2099,-0.1938,-0.181,-0.1763,-0.1631,-0.1474,-0.1333,-0.125,-0.1051,-0.1004,-0.0902,-0.0748,-0.0794,-0.0739,-0.0781,-0.0628,-0.0642,-0.0439,-0.0437,-0.0189,-0.0241,0.0019,0.0031,-0.0328,-0.0321,-0.0315,0,-0.2037,-0.1954,-0.1807,-0.1716,-0.1654,-0.149,-0.1365,-0.1261,-0.1127,-0.0897,-0.0779,-0.057,-0.0368,-0.0175,-0.0151,-0.0094,-0.0269,0.0108,-0.0028,0.0025,-0.0059,-0.0312,-0.0345,0.0291,0.0301,0.031,0.0317,0,-0.1849,-0.1832,-0.1714,-0.153,-0.1398,-0.1233,-0.1064,-0.0965,-0.081,-0.0667,-0.0387,-0.0197,0.0109,0.0378,0.0495,0.0476,0.0195,0.0294,0.0303,0.0529,0.033,0.0259,-0.0101,0.0394,0.0387,0.0381,0.0377,0.0374,-0.171,-0.1597,-0.1462,-0.1271,-0.1144,-0.0946,-0.0791,-0.066,-0.044,-0.0191,-0.0074,0.0235,0.0658,0.0928,0.0942,0.1129,0.081,0.109,0.1039,0.0784,0.0812,0.0679,0.1153,0.115,0.1147,0.1145,0.1143,0,-0.1452,-0.1348,-0.1189,-0.0945,-0.0763,-0.0754,-0.0549,-0.0413,-0.017,0.0026,0.0266,0.0747,0.1201,0.142,0.1735,0.1803,0.158,0.1782,0.1482,0.1415,0.1337,0.1385,0.1991,0.1991,0.1991,0.1991,0.1991,0.1991,-0.13,-0.1065,-0.0973,-0.0598,-0.0479,-0.0229,-0.0119,0.0002,0.0133,0.0436,0.0656,0.0809,0.1196,0.1869,0.2182,0.2188,0.1964,0.2043,0.1822,0.18,0.1726,0.1655,0.1694,0.2355,0.2355,0.1867,0.1864,0.1863]},{"header":{"parameterUnit":"m.s-1","parameterCategory":2,"la1":30.2991,"la2":30.254,"lo1":-89.0895,"lo2":-89.0444,"dy":0.0017,"dx":0.0017,"nx":28,"ny":28,"refTime":"2024-07-02T03:00:00:Z","depth":"0","parameterNumber":3,"parameterNumberName":"V-component_of_CURRENTS"},"data":[0,0,0,0,0,0,0,0,0,0,0,0,0,0,0,0,0,0,0,0,0,0,0,0,0,0,0,0,0,0,0,0,0,0,0,0,0,0,0,0,0,0,0,0,0,0,0,0,0,0,0,0,0,0,0,0,0,0,-0.1351,-0.1351,0,-0.1284,-0.1283,-0.1283,-0.1232,-0.1231,-0.1231,-0.123,-0.1089,-0.1086,-0.1083,0,0,0,0,0,0,0,0,0,0,0,0,0,-0.1349,-0.135,-0.1351,-0.1351,-0.135,-0.1284,-0.1283,-0.1282,-0.1232,-0.1231,-0.1231,-0.123,-0.109,-0.1086,-0.1082,0,0,0,0,0,0,0,0,0,0,0,0,0,-0.1323,-0.135,-0.1351,-0.1317,-0.1313,-0.1284,-0.1283,-0.1282,-0.1232,-0.1231,-0.1231,-0.123,-0.1092,-0.1087,-0.1082,-0.1063,0,0,-0.1066,-0.1064,0,0,0,0,0,0,0,0,-0.1324,-0.1323,-0.1323,-0.1319,-0.1315,-0.1266,-0.1231,-0.1205,-0.1232,-0.1262,-0.123,-0.123,-0.1142,-0.1133,-0.1122,-0.1056,-0.105,-0.1066,-0.1063,-0.106,-0.1059,0,0,0,0,0,0,0,-0.1326,-0.1325,-0.1324,-0.1322,-0.1317,-0.1275,-0.1272,-0.1226,-0.1205,-0.1259,-0.1256,-0.125,-0.114,-0.1127,-0.1118,-0.1048,-0.1066,-0.1061,-0.1058,-0.1056,-0.0895,-0.0894,0,0,0,0,0,0,-0.1341,-0.1327,-0.1326,-0.1322,-0.1319,-0.1276,-0.1272,-0.1282,-0.1206,-0.1195,-0.125,-0.1247,-0.1136,-0.1124,-0.1113,-0.1041,-0.1061,-0.1056,-0.1053,-0.0896,-0.0895,-0.0893,0,0,0,0,0,0,-0.1342,-0.1343,-0.1329,-0.1322,-0.1318,-0.1278,-0.1289,-0.1281,-0.126,-0.12,-0.1187,-0.1236,-0.1135,-0.112,-0.1049,-0.1037,-0.1053,-0.1049,-0.0898,-0.0896,-0.0894,-0.0925,0,0,0,0,0,0,-0.1342,-0.1344,-0.1358,-0.1324,-0.1319,-0.1299,-0.1289,-0.128,-0.1258,-0.1254,-0.1184,-0.1171,-0.1133,-0.1057,-0.1044,-0.103,-0.1045,-0.0899,-0.0897,-0.0895,-0.0926,-0.0925,-0.0924,0,0,0,0,0,-0.1343,-0.1358,-0.136,-0.1359,-0.134,-0.1298,-0.1291,-0.1259,-0.1258,-0.1241,-0.119,-0.1173,-0.1033,-0.1052,-0.1037,-0.1021,-0.09,-0.0898,-0.0895,-0.0926,-0.0925,-0.0924,0,0,0,0,0,0,-0.1357,-0.1354,-0.1354,-0.1368,-0.1332,-0.129,-0.1276,-0.126,-0.121,-0.1205,-0.1153,-0.1135,-0.1072,-0.1038,-0.1059,-0.0966,-0.0966,-0.096,-0.0994,-0.0993,-0.0992,-0.0971,-0.1041,0,0,0,0,0,-0.1373,-0.1389,-0.1361,-0.1369,-0.1354,-0.1318,-0.1301,-0.1278,-0.1231,-0.121,-0.1164,-0.1108,-0.1052,-0.1015,-0.0964,-0.091,-0.0909,-0.089,-0.0889,-0.0888,-0.086,-0.0876,-0.0875,-0.0884,-0.0884,-0.0884,0,0,-0.1382,-0.1381,-0.1391,-0.1374,-0.1347,-0.1317,-0.1305,-0.1274,-0.1239,-0.1201,-0.1141,-0.1105,-0.1036,-0.0975,-0.0944,-0.0943,-0.0887,-0.0885,-0.0885,-0.0856,-0.0873,-0.0872,-0.0872,-0.0882,-0.0883,-0.0883,0,0,-0.1384,-0.1403,-0.1404,-0.1378,-0.1343,-0.1319,-0.131,-0.1265,-0.1232,-0.1179,-0.114,-0.1083,-0.1013,-0.095,-0.0912,-0.0869,-0.0886,-0.0869,-0.0841,-0.0858,-0.0858,-0.0858,-0.0876,-0.0877,-0.0865,-0.0865,-0.0865,0,-0.1394,-0.1385,-0.1391,-0.1369,-0.1338,-0.132,-0.1281,-0.1252,-0.1189,-0.1144,-0.116,-0.1038,-0.0992,-0.0892,-0.0879,-0.0866,-0.089,-0.0859,-0.0861,-0.086,-0.0859,-0.0877,-0.0878,-0.0866,-0.0866,-0.0866,-0.0865,0,-0.1375,-0.1366,-0.1356,-0.1331,-0.1307,-0.1267,-0.1228,-0.119,-0.1168,-0.1134,-0.1047,-0.0995,-0.0907,-0.0905,-0.0877,-0.0831,-0.0857,-0.0869,-0.0874,-0.0861,-0.088,-0.088,-0.0867,-0.0867,-0.0867,-0.0866,0,0,-0.137,-0.1349,-0.1339,-0.1297,-0.1274,-0.1228,-0.1189,-0.1112,-0.1041,-0.103,-0.0941,-0.0879,-0.0859,-0.0811,-0.0781,-0.0797,-0.0827,-0.0835,-0.0836,-0.0869,-0.0883,-0.0801,-0.0794,-0.0869,-0.0868,-0.0868,-0.0907,0,-0.1331,-0.1278,-0.1286,-0.1208,-0.1158,-0.1137,-0.1081,-0.1024,-0.0979,-0.0897,-0.0868,-0.0778,-0.0821,-0.0764,-0.0795,-0.0812,-0.0826,-0.0815,-0.0873,-0.0873,-0.0816,-0.0789,-0.064,-0.0653,-0.0908,-0.0908,-0.0908,0,-0.1282,-0.1243,-0.1179,-0.1092,-0.1066,-0.1038,-0.0915,-0.0858,-0.0777,-0.0735,-0.069,-0.0667,-0.0643,-0.069,-0.0754,-0.0761,-0.0805,-0.0848,-0.0852,-0.0753,-0.0789,-0.0699,-0.0644,-0.0688,-0.0908,-0.0908,-0.0908,0,-0.1214,-0.1149,-0.1087,-0.1063,-0.0988,-0.0944,-0.0894,-0.0811,-0.0688,-0.0625,-0.0536,-0.0563,-0.0516,-0.0627,-0.0712,-0.0743,-0.0808,-0.0857,-0.0819,-0.0816,-0.0678,-0.0661,-0.0674,-0.088,-0.088,-0.088,-0.088,0,-0.1143,-0.1077,-0.1048,-0.1003,-0.0869,-0.087,-0.0715,-0.0659,-0.054,-0.0354,-0.0435,-0.0292,-0.0503,-0.055,-0.0683,-0.0748,-0.0787,-0.0789,-0.0807,-0.0684,-0.0668,-0.069,-0.0773,-0.0881,-0.0881,-0.0881,-0.088,0,-0.1058,-0.1058,-0.0946,-0.0871,-0.0835,-0.0731,-0.0567,-0.0418,-0.0371,-0.0134,-0.0094,-0.0096,-0.0182,-0.0388,-0.0552,-0.0647,-0.0789,-0.0756,-0.0599,-0.0595,-0.0594,-0.0684,-0.087,-0.0909,-0.0729,-0.0727,-0.0725,0,-0.0995,-0.0949,-0.0831,-0.0714,-0.0674,-0.0533,-0.0392,-0.0319,-0.0141,0.0044,0.0198,0.0152,0.0229,-0.004,-0.0306,-0.0545,-0.0689,-0.0506,-0.0507,-0.0541,-0.0658,-0.087,-0.0905,-0.0361,-0.0356,-0.0352,-0.0349,0,-0.0835,-0.0819,-0.0714,-0.0499,-0.0347,-0.0148,0.0032,0.0171,0.0314,0.049,0.0726,0.0778,0.0523,0.0367,-0.0007,-0.0177,-0.0553,-0.0431,-0.0505,-0.0379,-0.0573,-0.0633,-0.0411,-0.0316,-0.0319,-0.0322,-0.0324,-0.0325,-0.0671,-0.0552,-0.0413,-0.0191,-0.0003,0.0253,0.0409,0.0592,0.086,0.112,0.1156,0.1289,0.1044,0.0547,0.0229,-0.0146,-0.0332,-0.0165,-0.0279,-0.05,-0.0502,-0.0195,-0.0095,-0.0097,-0.0098,-0.01,-0.0101,0,-0.0393,-0.0281,-0.0079,0.0196,0.0448,0.047,0.0748,0.0884,0.1163,0.1397,0.1602,0.1762,0.1427,0.0951,0.0444,0.0134,-0.0166,-0.0051,-0.0289,-0.0337,-0.0044,0.002,0.0201,0.0201,0.0201,0.0201,0.0201,0.0201,-0.0217,0.0028,0.0116,0.0575,0.0747,0.1044,0.1184,0.1327,0.1484,0.1834,0.2064,0.2185,0.1981,0.1075,0.0408,0.0208,-0.0156,-0.0273,-0.0477,-0.0198,-0.0218,-0.0237,-0.0192,-0.0059,-0.006,-0.0714,-0.0719,-0.0723]}],[{"header":{"parameterUnit":"m.s-1","parameterCategory":2,"la1":30.2991,"la2":30.254,"lo1":-89.0895,"lo2":-89.0444,"dy":0.0017,"dx":0.0017,"nx":28,"ny":28,"refTime":"2024-07-02T03:00:00:Z","depth":"2","parameterNumber":2,"parameterNumberName":"U-component_of_CURRENTS"},"data":[0,0,0,0,0,0,0,0,0,0,0,0,0,0,0,0,0,0,0,0,0,0,0,0,0,0,0,0,0,0,0,0,0,0,0,0,0,0,0,0,0,0,0,0,0,0,0,0,0,0,0,0,0,0,0,0,0,0,-0.0939,-0.094,0,-0.1082,-0.1083,-0.1085,-0.1165,-0.1166,-0.1166,-0.1166,-0.1131,-0.113,-0.1128,0,0,0,0,0,0,0,0,0,0,0,0,0,-0.0741,-0.0744,-0.0938,-0.094,-0.0942,-0.1081,-0.1083,-0.1085,-0.1165,-0.1166,-0.1166,-0.1166,-0.1131,-0.113,-0.1128,0,0,0,0,0,0,0,0,0,0,0,0,0,-0.0849,-0.0745,-0.0938,-0.0999,-0.1006,-0.1081,-0.1083,-0.1086,-0.1165,-0.1166,-0.1166,-0.1166,-0.1132,-0.113,-0.1128,-0.1109,0,0,-0.1123,-0.1122,0,0,0,0,0,0,0,0,-0.0843,-0.0857,-0.0988,-0.0995,-0.1003,-0.1106,-0.1001,-0.1085,-0.1165,-0.1105,-0.1166,-0.1167,-0.1106,-0.1106,-0.1135,-0.1107,-0.1106,-0.1122,-0.1121,-0.1121,-0.112,0,0,0,0,0,0,0,-0.0835,-0.0851,-0.0995,-0.099,-0.0999,-0.1021,-0.1037,-0.1018,-0.1098,-0.111,-0.1116,-0.1132,-0.1108,-0.1136,-0.1134,-0.1105,-0.1123,-0.1121,-0.112,-0.1119,-0.1056,-0.1056,0,0,0,0,0,0,-0.0818,-0.0844,-0.0991,-0.0999,-0.0922,-0.1024,-0.1042,-0.1072,-0.1102,-0.1109,-0.1132,-0.1135,-0.1139,-0.1136,-0.1132,-0.1107,-0.1121,-0.1119,-0.1118,-0.1057,-0.1056,-0.1056,0,0,0,0,0,0,-0.0813,-0.083,-0.0985,-0.0924,-0.0945,-0.1027,-0.1061,-0.1075,-0.111,-0.1121,-0.1124,-0.1152,-0.1139,-0.1135,-0.1124,-0.1106,-0.1118,-0.1117,-0.1058,-0.1057,-0.1056,-0.1057,0,0,0,0,0,0,-0.0807,-0.0828,-0.0852,-0.0923,-0.0948,-0.1027,-0.1061,-0.1078,-0.1119,-0.1125,-0.1138,-0.1136,-0.1139,-0.1127,-0.1123,-0.1103,-0.1115,-0.1058,-0.1057,-0.1056,-0.1058,-0.1056,-0.1055,0,0,0,0,0,-0.08,-0.0829,-0.0852,-0.0871,-0.0976,-0.1027,-0.1042,-0.1101,-0.1119,-0.1133,-0.1145,-0.1136,-0.1116,-0.1126,-0.112,-0.11,-0.1059,-0.1058,-0.1056,-0.1058,-0.1057,-0.1055,0,0,0,0,0,0,-0.0763,-0.0842,-0.0869,-0.0924,-0.0969,-0.1041,-0.1073,-0.1099,-0.1126,-0.1132,-0.1134,-0.1132,-0.1123,-0.1106,-0.1116,-0.1078,-0.1083,-0.108,-0.1086,-0.1084,-0.1083,-0.1078,-0.1114,0,0,0,0,0,-0.0763,-0.0806,-0.0871,-0.0916,-0.0941,-0.1003,-0.1035,-0.1068,-0.11,-0.1116,-0.1127,-0.1123,-0.1113,-0.1095,-0.1097,-0.1064,-0.1013,-0.1045,-0.1044,-0.1043,-0.1035,-0.0964,-0.0956,-0.1051,-0.1051,-0.1051,0,0,-0.0764,-0.0812,-0.0839,-0.091,-0.0958,-0.0996,-0.1024,-0.1072,-0.1089,-0.11,-0.1126,-0.113,-0.111,-0.1096,-0.1085,-0.1074,-0.098,-0.1041,-0.1041,-0.1033,-0.0962,-0.0953,-0.0944,-0.105,-0.105,-0.1051,0,0,-0.0782,-0.0827,-0.0869,-0.0903,-0.0967,-0.0997,-0.1004,-0.1071,-0.1087,-0.1095,-0.1117,-0.1107,-0.109,-0.1083,-0.1068,-0.1049,-0.0992,-0.1044,-0.1012,-0.0944,-0.0935,-0.0927,-0.081,-0.0792,-0.1023,-0.1023,-0.1023,0,-0.0778,-0.0838,-0.0885,-0.0928,-0.0947,-0.0992,-0.1017,-0.1044,-0.1094,-0.1079,-0.1095,-0.1077,-0.1078,-0.1038,-0.1049,-0.1045,-0.0982,-0.1022,-0.0941,-0.0932,-0.0924,-0.0807,-0.0786,-0.1023,-0.1023,-0.1023,-0.1023,0,-0.0824,-0.0869,-0.0893,-0.0956,-0.0978,-0.1006,-0.1036,-0.1047,-0.1053,-0.1063,-0.1035,-0.1043,-0.102,-0.102,-0.1031,-0.0975,-0.0938,-0.0964,-0.0945,-0.0914,-0.0792,-0.0771,-0.1022,-0.1023,-0.1023,-0.1023,0,0,-0.0811,-0.0906,-0.0913,-0.093,-0.0984,-0.0999,-0.1008,-0.1006,-0.0985,-0.1006,-0.096,-0.0969,-0.097,-0.0955,-0.0965,-0.0913,-0.0808,-0.0913,-0.091,-0.0796,-0.0608,-0.0492,-0.0457,-0.0819,-0.0816,-0.0814,-0.0532,0,-0.0826,-0.0897,-0.0929,-0.0959,-0.0987,-0.0995,-0.0987,-0.0983,-0.0968,-0.0939,-0.0915,-0.0896,-0.0943,-0.0928,-0.0887,-0.0841,-0.0758,-0.0879,-0.0657,-0.0649,-0.0549,-0.0432,-0.0493,-0.024,-0.0511,-0.0507,-0.0505,0,-0.0847,-0.089,-0.0934,-0.094,-0.0946,-0.0948,-0.0903,-0.0901,-0.0862,-0.0847,-0.0816,-0.0822,-0.0767,-0.0815,-0.0671,-0.0744,-0.0674,-0.0626,-0.0614,-0.0494,-0.0494,-0.0322,-0.019,-0.0469,-0.0472,-0.0474,-0.0477,0,-0.0808,-0.0867,-0.0892,-0.0907,-0.0939,-0.0909,-0.0887,-0.0857,-0.0833,-0.0784,-0.0757,-0.0704,-0.0654,-0.0585,-0.0505,-0.0582,-0.0309,-0.0398,-0.0207,-0.0197,-0.0196,-0.0189,-0.0268,-0.0268,-0.0269,-0.0269,-0.027,0,-0.0794,-0.0814,-0.087,-0.0888,-0.0853,-0.0868,-0.0804,-0.0784,-0.0744,-0.0702,-0.0707,-0.0655,-0.06,-0.0468,-0.0421,-0.0201,-0.0223,-0.0153,-0.0106,-0.0192,-0.0189,-0.0373,-0.0389,-0.0259,-0.0261,-0.0263,-0.0265,0,-0.0766,-0.0816,-0.0843,-0.0863,-0.0847,-0.0814,-0.0758,-0.0724,-0.0691,-0.0634,-0.0623,-0.0562,-0.0381,-0.0271,-0.0098,-0.0049,0.0111,0.0192,0.0122,0.0155,0.0155,0.0136,0.043,0.0437,0.0443,0.0447,0.0451,0,-0.0776,-0.0798,-0.0819,-0.0803,-0.0805,-0.0756,-0.0724,-0.0693,-0.0678,-0.0581,-0.0562,-0.0375,-0.0262,0.0091,0.0243,0.0464,0.0354,0.0522,0.0345,0.0217,0.0232,0.0203,0.0177,0.0361,0.0364,0.0366,0.0368,0,-0.0781,-0.079,-0.08,-0.0779,-0.0746,-0.072,-0.0676,-0.0658,-0.0626,-0.0555,-0.0439,-0.0326,-0.0,0.0228,0.0537,0.0606,0.0472,0.0581,0.0501,0.0189,0.0174,0.018,0.0152,0.0389,0.0387,0.0386,0.0384,0.0384,-0.0772,-0.0762,-0.077,-0.0737,-0.0709,-0.0693,-0.0625,-0.0598,-0.0528,-0.0393,-0.0334,-0.0102,0.0045,0.0514,0.0576,0.0679,0.0743,0.0676,0.0659,0.0642,0.0579,0.0574,0.0857,0.0857,0.0858,0.0858,0.0858,0,-0.0739,-0.0732,-0.072,-0.0689,-0.0645,-0.0656,-0.0604,-0.052,-0.0396,-0.0256,-0.0096,0.0058,0.0278,0.0425,0.0642,0.0726,0.0569,0.0646,0.042,0.0409,0.0397,0.0305,0.0519,0.0516,0.0514,0.0511,0,0,-0.0717,-0.0693,-0.0694,-0.0636,-0.061,-0.0522,-0.0471,-0.035,-0.0212,-0.0021,0.0149,0.0302,0.0442,0.0449,0.0504,0.0552,0.0421,0.0493,0.0795,0.052,0.0502,0.0488,0.0351,0,0,0,0,0]},{"header":{"parameterUnit":"m.s-1","parameterCategory":2,"la1":30.2991,"la2":30.254,"lo1":-89.0895,"lo2":-89.0444,"dy":0.0017,"dx":0.0017,"nx":28,"ny":28,"refTime":"2024-07-02T03:00:00:Z","depth":"2","parameterNumber":3,"parameterNumberName":"V-component_of_CURRENTS"},"data":[0,0,0,0,0,0,0,0,0,0,0,0,0,0,0,0,0,0,0,0,0,0,0,0,0,0,0,0,0,0,0,0,0,0,0,0,0,0,0,0,0,0,0,0,0,0,0,0,0,0,0,0,0,0,0,0,0,0,-0.0591,-0.059,0,-0.0441,-0.0438,-0.0436,-0.0276,-0.0274,-0.0273,-0.0271,0.0059,0.0066,0.0074,0,0,0,0,0,0,0,0,0,0,0,0,0,-0.0679,-0.0678,-0.0591,-0.059,-0.0589,-0.0441,-0.0438,-0.0435,-0.0276,-0.0274,-0.0272,-0.027,0.0057,0.0065,0.0074,0,0,0,0,0,0,0,0,0,0,0,0,0,-0.0589,-0.0678,-0.0592,-0.0497,-0.0488,-0.0442,-0.0438,-0.0435,-0.0276,-0.0274,-0.0272,-0.0269,0.0054,0.0065,0.0076,0.0098,0,0,0.0109,0.0114,0,0,0,0,0,0,0,0,-0.0594,-0.0585,-0.0512,-0.0504,-0.0493,-0.0382,-0.0349,-0.025,-0.0277,-0.0348,-0.0271,-0.0268,-0.0078,-0.0057,-0.0024,0.0113,0.0127,0.011,0.0117,0.0122,0.0125,0,0,0,0,0,0,0,-0.0601,-0.059,-0.0523,-0.0512,-0.05,-0.0442,-0.0427,-0.0329,-0.0219,-0.0342,-0.0332,-0.0329,-0.007,-0.0036,-0.0015,0.0132,0.011,0.012,0.0127,0.0131,0.0418,0.0419,0,0,0,0,0,0,-0.0641,-0.0597,-0.0528,-0.052,-0.0548,-0.0444,-0.0425,-0.0413,-0.0223,-0.0196,-0.0331,-0.0322,-0.0056,-0.0028,-0.0003,0.0122,0.0122,0.0132,0.0138,0.0417,0.0418,0.0419,0,0,0,0,0,0,-0.0643,-0.0636,-0.0535,-0.0561,-0.0545,-0.0446,-0.0433,-0.0412,-0.0354,-0.0218,-0.0185,-0.0293,-0.0053,-0.0018,0.0123,0.0133,0.0137,0.0147,0.0416,0.0417,0.0418,0.0317,0,0,0,0,0,0,-0.0646,-0.0638,-0.063,-0.0564,-0.0546,-0.0509,-0.0435,-0.0411,-0.0361,-0.0347,-0.0175,-0.0144,-0.0048,0.0106,0.0134,0.0149,0.0156,0.0414,0.0416,0.0418,0.0319,0.0315,0.0312,0,0,0,0,0,-0.065,-0.0636,-0.063,-0.0621,-0.0542,-0.0511,-0.0495,-0.0411,-0.0362,-0.0346,-0.0206,-0.0148,0.0137,0.0116,0.0149,0.0167,0.0413,0.0416,0.0418,0.0321,0.0316,0.0312,0,0,0,0,0,0,-0.066,-0.0619,-0.0609,-0.0582,-0.0561,-0.0487,-0.0453,-0.0414,-0.0296,-0.0255,-0.0123,-0.0082,0.0046,0.0118,0.0092,0.0255,0.028,0.0288,0.0195,0.0191,0.0187,0.0158,0.0165,0,0,0,0,0,-0.0672,-0.0647,-0.0622,-0.0601,-0.0591,-0.0528,-0.0499,-0.0452,-0.0354,-0.03,-0.0172,-0.0037,0.0072,0.0142,0.0257,0.0345,0.035,0.0376,0.0371,0.0367,0.0366,0.0326,0.0316,0.0426,0.0426,0.0426,0,0,-0.0675,-0.0645,-0.0635,-0.0603,-0.0565,-0.053,-0.05,-0.0456,-0.0399,-0.0281,-0.0126,-0.0036,0.0096,0.0207,0.0267,0.0274,0.0347,0.037,0.0366,0.0367,0.0327,0.0315,0.0305,0.0428,0.0428,0.0427,0,0,-0.0657,-0.0643,-0.0615,-0.0596,-0.0558,-0.0523,-0.0518,-0.0438,-0.0375,-0.0254,-0.0154,-0.007,0.0132,0.0198,0.0261,0.0298,0.033,0.0345,0.0301,0.026,0.0249,0.0239,0.0248,0.0239,0.0336,0.0336,0.0336,0,-0.0661,-0.0618,-0.0607,-0.057,-0.0539,-0.0522,-0.048,-0.0429,-0.0302,-0.0255,-0.0202,0.0016,0.0121,0.0202,0.0229,0.0285,0.0284,0.0301,0.0248,0.0238,0.023,0.0241,0.0233,0.0331,0.0332,0.0332,0.0333,0,-0.0624,-0.0583,-0.0563,-0.0508,-0.0481,-0.0448,-0.0401,-0.0347,-0.0272,-0.0221,-0.0117,-0.0009,0.0108,0.0141,0.0217,0.0213,0.0241,0.0242,0.0241,0.0211,0.0227,0.022,0.0325,0.0327,0.0328,0.0329,0,0,-0.0643,-0.0555,-0.0546,-0.0499,-0.0442,-0.0413,-0.0342,-0.0288,-0.0249,-0.0158,-0.0111,0.0031,0.0042,0.0111,0.0163,0.0131,0.0085,0.0165,0.0165,0.0142,0.0025,-0.0,-0.0009,0.006,0.0058,0.0056,0.0063,0,-0.0614,-0.0537,-0.0493,-0.0406,-0.0363,-0.0322,-0.0261,-0.0211,-0.0164,-0.0118,-0.0088,-0.0007,0.004,0.0078,0.0048,0.0078,0.0061,0.0085,0.0086,0.0088,0.004,-0.0021,0.0098,0.0108,0.0057,0.0056,0.0055,0,-0.0592,-0.0534,-0.0452,-0.0344,-0.0322,-0.026,-0.019,-0.0136,-0.011,-0.0075,-0.0063,-0.0039,-0.0041,-0.0015,-0.0032,-0.0021,0.001,0.0013,0.0012,0.0017,0.0048,0.0132,0.0099,0.0044,0.0045,0.0046,0.0047,0,-0.0617,-0.0502,-0.0429,-0.0394,-0.0283,-0.0218,-0.0158,-0.0114,-0.0084,-0.0071,-0.0073,-0.0081,-0.0081,-0.0095,-0.0066,-0.0052,-0.0108,-0.0089,-0.0081,-0.0079,0.0038,0.0051,-0.0107,-0.0107,-0.0107,-0.0107,-0.0107,0,-0.0607,-0.0539,-0.0421,-0.038,-0.0276,-0.0203,-0.0127,-0.008,-0.0063,-0.0078,-0.0058,-0.0104,-0.0108,-0.0137,-0.0106,-0.0126,-0.0138,-0.0102,-0.0101,0.0011,0.0021,-0.0017,-0.0007,-0.0106,-0.0106,-0.0106,-0.0106,0,-0.0627,-0.0565,-0.0459,-0.0327,-0.028,-0.0199,-0.0094,-0.0087,-0.0048,-0.0085,-0.0087,-0.0127,-0.0171,-0.016,-0.0183,-0.0175,-0.0185,-0.0168,-0.0016,-0.0001,-0.0108,-0.0103,-0.0181,-0.0183,-0.0184,-0.0185,-0.0186,0,-0.0621,-0.0577,-0.0434,-0.0384,-0.0302,-0.0193,-0.016,-0.0083,-0.0108,-0.0125,-0.0182,-0.0204,-0.0285,-0.0311,-0.0289,-0.0261,-0.0201,-0.0093,-0.0063,-0.0136,-0.0126,-0.0119,-0.0112,0.0084,0.0086,0.0087,0.0088,0,-0.0599,-0.0553,-0.0484,-0.0407,-0.0332,-0.0277,-0.0223,-0.0245,-0.0227,-0.0266,-0.0375,-0.043,-0.0428,-0.0396,-0.0311,-0.025,-0.0103,-0.0073,-0.0202,0.0059,0.0107,0.0119,0.0119,0.0099,0.0098,0.0097,0.0097,0.0096,-0.0581,-0.0552,-0.05,-0.0425,-0.037,-0.0395,-0.0387,-0.0402,-0.0457,-0.0491,-0.0536,-0.0527,-0.0463,-0.0357,-0.0277,-0.0108,-0.0158,-0.0007,-0.0007,-0.0009,-0.0006,0.0034,0.0017,0.0016,0.0015,0.0014,0.0013,0,-0.0597,-0.0583,-0.0533,-0.0484,-0.0486,-0.0425,-0.0469,-0.0485,-0.0585,-0.0555,-0.0594,-0.0486,-0.0391,-0.0243,-0.004,-0.0009,0.0046,0.0122,0.0214,0.0205,0.0196,0.0212,0.0292,0.0292,0.0292,0.0292,0,0,-0.0605,-0.0614,-0.0618,-0.0622,-0.0582,-0.0597,-0.0632,-0.0646,-0.0619,-0.0605,-0.0508,-0.0464,-0.0352,-0.015,-0.0019,0.0155,0.0172,0.0215,0.0002,0.0092,0.0082,0.015,0.0166,0,0,0,0,0]}],[{"header":{"parameterUnit":"m.s-1","parameterCategory":2,"la1":30.2991,"la2":30.254,"lo1":-89.0895,"lo2":-89.0444,"dy":0.0017,"dx":0.0017,"nx":28,"ny":28,"refTime":"2024-07-02T03:00:00:Z","depth":"4","parameterNumber":2,"parameterNumberName":"U-component_of_CURRENTS"},"data":[0,0,0,0,0,0,0,0,0,0,0,0,0,0,0,0,0,0,0,0,0,0,0,0,0,0,0,0,0,0,0,0,0,0,0,0,0,0,0,0,0,0,0,0,0,0,0,0,0,0,0,0,0,0,0,0,0,0,-0.0397,-0.0398,0,-0.0397,-0.0397,-0.0397,-0.0384,-0.0384,-0.0383,-0.0383,-0.0412,-0.0413,-0.0414,0,0,0,0,0,0,0,0,0,0,0,0,0,-0.0391,-0.0391,-0.0397,-0.0398,-0.0398,-0.0397,-0.0397,-0.0397,-0.0384,-0.0384,-0.0383,-0.0383,-0.0411,-0.0412,-0.0414,0,0,0,0,0,0,0,0,0,0,0,0,0,-0.0391,-0.0391,-0.0397,-0.0392,-0.0392,-0.0397,-0.0397,-0.0397,-0.0384,-0.0384,-0.0383,-0.0383,-0.0411,-0.0412,-0.0414,-0.043,0,0,-0.0418,-0.0419,0,0,0,0,0,0,0,0,-0.0391,-0.0391,-0.0393,-0.0392,-0.0392,-0.0391,-0.0405,-0.0409,-0.0384,-0.0386,-0.0383,-0.0383,-0.0409,-0.041,-0.0409,-0.0431,-0.0432,-0.0418,-0.0419,-0.042,-0.042,0,0,0,0,0,0,0,-0.0391,-0.0391,-0.0396,-0.0393,-0.0392,-0.0391,-0.039,-0.0406,-0.0399,-0.0385,-0.0385,-0.0387,-0.0408,-0.0407,-0.0409,-0.0433,-0.0418,-0.042,-0.0421,-0.0421,-0.0468,-0.0468,0,0,0,0,0,0,-0.0394,-0.0391,-0.0396,-0.0396,-0.0392,-0.0391,-0.0391,-0.0391,-0.0398,-0.0399,-0.0387,-0.0386,-0.0405,-0.0408,-0.041,-0.0428,-0.042,-0.0421,-0.0422,-0.0468,-0.0468,-0.0469,0,0,0,0,0,0,-0.0394,-0.0394,-0.0396,-0.0395,-0.0395,-0.0392,-0.0392,-0.0391,-0.0392,-0.0399,-0.04,-0.039,-0.0405,-0.0408,-0.0415,-0.0429,-0.0422,-0.0423,-0.0467,-0.0468,-0.0468,-0.0464,0,0,0,0,0,0,-0.0394,-0.0394,-0.0396,-0.0395,-0.0395,-0.0399,-0.0392,-0.0391,-0.0394,-0.0393,-0.0402,-0.0404,-0.0405,-0.0413,-0.0417,-0.0431,-0.0424,-0.0467,-0.0468,-0.0468,-0.0463,-0.0464,-0.0465,0,0,0,0,0,-0.0393,-0.0394,-0.0396,-0.0397,-0.0398,-0.0399,-0.0399,-0.0395,-0.0395,-0.0395,-0.0395,-0.0404,-0.0421,-0.0414,-0.0418,-0.0433,-0.0466,-0.0467,-0.0468,-0.0463,-0.0464,-0.0465,0,0,0,0,0,0,-0.0392,-0.0393,-0.0395,-0.0396,-0.0399,-0.0397,-0.0396,-0.0399,-0.0399,-0.0396,-0.0404,-0.0406,-0.0416,-0.0427,-0.042,-0.0449,-0.0448,-0.0449,-0.0442,-0.0443,-0.0444,-0.0437,-0.0426,0,0,0,0,0,-0.0394,-0.0395,-0.0397,-0.0399,-0.0399,-0.0401,-0.0402,-0.0399,-0.04,-0.0399,-0.0412,-0.042,-0.0424,-0.0434,-0.0439,-0.0458,-0.0458,-0.0473,-0.0473,-0.0474,-0.0471,-0.0499,-0.0501,-0.0471,-0.0471,-0.0471,0,0,-0.0396,-0.0396,-0.0398,-0.04,-0.0399,-0.0398,-0.04,-0.0398,-0.0401,-0.0404,-0.0416,-0.0421,-0.0427,-0.0438,-0.0446,-0.045,-0.0475,-0.0475,-0.0475,-0.0472,-0.05,-0.0503,-0.0505,-0.0472,-0.0472,-0.0472,0,0,-0.0397,-0.0398,-0.0398,-0.0398,-0.0397,-0.0397,-0.04,-0.0405,-0.0408,-0.0422,-0.0417,-0.0431,-0.0452,-0.0454,-0.0457,-0.047,-0.0472,-0.0476,-0.0482,-0.0508,-0.0511,-0.0513,-0.0483,-0.0483,-0.0484,-0.0484,-0.0484,0,-0.0399,-0.0398,-0.0399,-0.0396,-0.0393,-0.0398,-0.0395,-0.04,-0.0411,-0.0414,-0.0426,-0.0451,-0.0461,-0.0465,-0.0464,-0.0472,-0.0467,-0.0477,-0.0509,-0.0512,-0.0514,-0.0483,-0.0483,-0.0484,-0.0484,-0.0484,-0.0484,0,-0.0396,-0.0397,-0.0395,-0.0393,-0.0391,-0.0388,-0.0392,-0.0399,-0.0413,-0.0423,-0.0441,-0.0458,-0.0472,-0.0483,-0.0476,-0.0495,-0.0475,-0.05,-0.0505,-0.0517,-0.0483,-0.0483,-0.0484,-0.0484,-0.0484,-0.0484,0,0,-0.0395,-0.0394,-0.0393,-0.0387,-0.0386,-0.038,-0.0384,-0.0387,-0.0388,-0.0423,-0.0434,-0.0456,-0.047,-0.0474,-0.048,-0.0507,-0.051,-0.0509,-0.0511,-0.0475,-0.0524,-0.0425,-0.0415,-0.0544,-0.0545,-0.0546,-0.0481,0,-0.0392,-0.0386,-0.0386,-0.0377,-0.037,-0.037,-0.0371,-0.0374,-0.0389,-0.0405,-0.0435,-0.0446,-0.0465,-0.0469,-0.0501,-0.0511,-0.0515,-0.0522,-0.0523,-0.0521,-0.043,-0.0415,-0.0548,-0.0481,-0.0481,-0.0481,-0.0481,0,-0.0386,-0.0381,-0.0373,-0.036,-0.0356,-0.0352,-0.0342,-0.0345,-0.0362,-0.0375,-0.0403,-0.0422,-0.0449,-0.0474,-0.0506,-0.0509,-0.0508,-0.0521,-0.0519,-0.0431,-0.0423,-0.0476,-0.0481,-0.0481,-0.0481,-0.0481,-0.0481,0,-0.0373,-0.0368,-0.0359,-0.0355,-0.0346,-0.0338,-0.0333,-0.0338,-0.0334,-0.0355,-0.0359,-0.0402,-0.042,-0.0455,-0.0475,-0.0492,-0.0502,-0.0533,-0.0433,-0.0424,-0.0537,-0.0535,-0.0546,-0.0546,-0.0546,-0.0546,-0.0546,0,-0.036,-0.0353,-0.0353,-0.0344,-0.0325,-0.0324,-0.0309,-0.0308,-0.0313,-0.0304,-0.0342,-0.0346,-0.0422,-0.0436,-0.0459,-0.0429,-0.0489,-0.0414,-0.0406,-0.053,-0.0529,-0.0534,-0.0533,-0.0544,-0.0544,-0.0545,-0.0545,0,-0.0341,-0.0347,-0.0333,-0.0323,-0.0319,-0.0302,-0.0283,-0.0272,-0.0279,-0.0269,-0.0271,-0.0306,-0.0311,-0.0349,-0.0391,-0.0386,-0.0385,-0.0354,-0.0435,-0.0435,-0.0285,-0.0285,-0.0232,-0.0228,-0.0225,-0.0222,-0.022,0,-0.0326,-0.0322,-0.0312,-0.0297,-0.029,-0.0271,-0.0256,-0.0255,-0.0242,-0.0238,-0.023,-0.0229,-0.0246,-0.0221,-0.0271,-0.0262,-0.0269,-0.0249,-0.0307,-0.0257,-0.0256,-0.0261,-0.0266,-0.0214,-0.0214,-0.0213,-0.0212,0,-0.0295,-0.0299,-0.0286,-0.0266,-0.0248,-0.0225,-0.0204,-0.0189,-0.0184,-0.0192,-0.017,-0.0159,-0.0145,-0.0171,-0.0146,-0.016,-0.0263,-0.0215,-0.0223,-0.0277,-0.0236,-0.0238,-0.0247,-0.02,-0.0202,-0.0203,-0.0204,0,-0.0271,-0.0256,-0.025,-0.0227,-0.0206,-0.0179,-0.0173,-0.0148,-0.0135,-0.0129,-0.0122,-0.0125,-0.0146,-0.0112,-0.0108,-0.0086,-0.0092,-0.0104,-0.0118,-0.0131,-0.0128,-0.0063,0.0048,0,0,0,0,0,-0.0242,-0.0229,-0.0208,-0.0183,-0.0162,-0.0154,-0.0137,-0.0135,-0.0133,-0.0099,-0.0105,-0.0085,-0.0051,-0.0063,-0.002,-0.005,-0.0093,0.0004,-0.0116,-0.0136,-0.015,-0.0156,0,0,0,0,0,0,-0.0224,-0.0208,-0.0202,-0.0156,-0.0131,-0.0108,-0.0099,-0.0097,-0.008,-0.008,-0.0073,-0.0059,-0.0044,-0.0075,-0.0017,-0.0012,-0.0076,0.001,0.0012,-0.0129,-0.0141,-0.0152,-0.0163,0,0,0,0,0]},{"header":{"parameterUnit":"m.s-1","parameterCategory":2,"la1":30.2991,"la2":30.254,"lo1":-89.0895,"lo2":-89.0444,"dy":0.0017,"dx":0.0017,"nx":28,"ny":28,"refTime":"2024-07-02T03:00:00:Z","depth":"4","parameterNumber":3,"parameterNumberName":"V-component_of_CURRENTS"},"data":[0,0,0,0,0,0,0,0,0,0,0,0,0,0,0,0,0,0,0,0,0,0,0,0,0,0,0,0,0,0,0,0,0,0,0,0,0,0,0,0,0,0,0,0,0,0,0,0,0,0,0,0,0,0,0,0,0,0,-0.0431,-0.0431,0,-0.044,-0.044,-0.044,-0.0431,-0.0431,-0.0431,-0.043,-0.0415,-0.0414,-0.0414,0,0,0,0,0,0,0,0,0,0,0,0,0,-0.0416,-0.0416,-0.0431,-0.0431,-0.0432,-0.044,-0.044,-0.044,-0.0431,-0.0431,-0.0431,-0.043,-0.0415,-0.0414,-0.0414,0,0,0,0,0,0,0,0,0,0,0,0,0,-0.0422,-0.0416,-0.0431,-0.0429,-0.0429,-0.044,-0.044,-0.044,-0.0431,-0.0431,-0.0431,-0.043,-0.0415,-0.0414,-0.0414,-0.0418,0,0,-0.0413,-0.0413,0,0,0,0,0,0,0,0,-0.0422,-0.0422,-0.0429,-0.043,-0.043,-0.0435,-0.0429,-0.0432,-0.0431,-0.0429,-0.043,-0.043,-0.0421,-0.042,-0.042,-0.0417,-0.0416,-0.0413,-0.0413,-0.0413,-0.0412,0,0,0,0,0,0,0,-0.0421,-0.0422,-0.0433,-0.043,-0.043,-0.0432,-0.0432,-0.0429,-0.0425,-0.0429,-0.0429,-0.0432,-0.042,-0.042,-0.042,-0.0416,-0.0413,-0.0413,-0.0412,-0.0412,-0.045,-0.0451,0,0,0,0,0,0,-0.0423,-0.0422,-0.0433,-0.0433,-0.0427,-0.0432,-0.0432,-0.0433,-0.0425,-0.0424,-0.0433,-0.0432,-0.0421,-0.042,-0.0419,-0.0451,-0.0413,-0.0412,-0.0412,-0.0449,-0.0451,-0.0452,0,0,0,0,0,0,-0.0423,-0.0424,-0.0432,-0.0429,-0.0431,-0.0433,-0.0433,-0.0433,-0.0438,-0.0428,-0.0427,-0.0439,-0.0421,-0.0419,-0.0435,-0.0449,-0.0412,-0.0412,-0.0448,-0.0449,-0.0451,-0.0497,0,0,0,0,0,0,-0.0422,-0.0424,-0.0428,-0.0429,-0.0431,-0.0443,-0.0434,-0.0433,-0.0441,-0.0441,-0.0433,-0.0431,-0.0421,-0.0435,-0.0434,-0.0448,-0.0411,-0.0446,-0.0448,-0.0451,-0.0494,-0.0501,-0.0506,0,0,0,0,0,-0.0422,-0.0427,-0.0428,-0.043,-0.0435,-0.0443,-0.0444,-0.0444,-0.0442,-0.0447,-0.0452,-0.0431,-0.0449,-0.0436,-0.0435,-0.0449,-0.0445,-0.0448,-0.045,-0.0492,-0.0499,-0.0506,0,0,0,0,0,0,-0.0421,-0.0427,-0.0428,-0.0435,-0.0441,-0.0442,-0.045,-0.0449,-0.0457,-0.0459,-0.0448,-0.0447,-0.0466,-0.0454,-0.0441,-0.0468,-0.0443,-0.0446,-0.0475,-0.0482,-0.0488,-0.0481,-0.0411,0,0,0,0,0,-0.0425,-0.0432,-0.0436,-0.0444,-0.0449,-0.0451,-0.0456,-0.0456,-0.0462,-0.0465,-0.0465,-0.0468,-0.0476,-0.0477,-0.048,-0.0494,-0.044,-0.0502,-0.0508,-0.0513,-0.0508,-0.0416,-0.0411,-0.0461,-0.0461,-0.0461,0,0,-0.043,-0.0433,-0.0438,-0.0445,-0.0451,-0.0464,-0.0453,-0.0464,-0.0478,-0.0462,-0.0487,-0.0489,-0.0486,-0.0505,-0.0512,-0.0496,-0.0479,-0.0517,-0.0521,-0.0512,-0.0418,-0.0413,-0.0408,-0.0463,-0.0462,-0.0462,0,0,-0.0442,-0.0444,-0.0456,-0.0464,-0.0475,-0.0477,-0.0483,-0.0492,-0.0499,-0.0523,-0.0519,-0.0531,-0.0544,-0.0543,-0.0543,-0.0582,-0.0514,-0.0587,-0.0606,-0.0518,-0.0512,-0.0506,-0.0456,-0.0445,-0.0587,-0.0587,-0.0587,0,-0.0448,-0.0462,-0.0461,-0.0475,-0.0488,-0.0486,-0.0504,-0.0512,-0.0527,-0.054,-0.0538,-0.0564,-0.056,-0.0577,-0.0594,-0.0594,-0.0537,-0.0579,-0.0521,-0.0514,-0.0507,-0.0457,-0.0444,-0.0589,-0.0589,-0.0589,-0.0589,0,-0.0469,-0.0484,-0.0493,-0.0511,-0.0522,-0.0539,-0.0549,-0.0565,-0.0577,-0.0586,-0.0613,-0.0612,-0.0621,-0.0629,-0.0623,-0.0592,-0.0568,-0.0537,-0.0495,-0.0504,-0.0453,-0.0438,-0.0593,-0.0592,-0.0591,-0.0591,0,0,-0.0479,-0.0503,-0.051,-0.0527,-0.0545,-0.0557,-0.0583,-0.0607,-0.0628,-0.0642,-0.0664,-0.0681,-0.0673,-0.0673,-0.0665,-0.0601,-0.0517,-0.0549,-0.0543,-0.0487,-0.0332,-0.0356,-0.0343,-0.0456,-0.0453,-0.0451,-0.0325,0,-0.0501,-0.0532,-0.054,-0.0579,-0.0597,-0.0608,-0.0635,-0.0655,-0.067,-0.069,-0.0687,-0.0705,-0.0691,-0.0697,-0.063,-0.0548,-0.0477,-0.0555,-0.0344,-0.0338,-0.0346,-0.0326,-0.0443,-0.0314,-0.031,-0.0308,-0.0306,0,-0.0525,-0.0543,-0.058,-0.0617,-0.0628,-0.0651,-0.0692,-0.0713,-0.0732,-0.0743,-0.0747,-0.0741,-0.0701,-0.0667,-0.0509,-0.0552,-0.0442,-0.0368,-0.036,-0.035,-0.0334,-0.0298,-0.028,-0.0282,-0.0284,-0.0285,-0.0287,0,-0.0538,-0.0575,-0.0607,-0.062,-0.0658,-0.0683,-0.0704,-0.0733,-0.0758,-0.0768,-0.0782,-0.0736,-0.0715,-0.0568,-0.0455,-0.0451,-0.0261,-0.0231,-0.0154,-0.0155,-0.015,-0.0157,-0.0079,-0.0079,-0.0079,-0.008,-0.008,0,-0.0559,-0.059,-0.0617,-0.0639,-0.0686,-0.0701,-0.0751,-0.0769,-0.0791,-0.0817,-0.0803,-0.0808,-0.0675,-0.058,-0.0443,-0.0276,-0.0243,-0.0149,-0.0112,-0.018,-0.0192,-0.0141,-0.015,-0.0075,-0.0076,-0.0077,-0.0078,0,-0.0578,-0.0592,-0.0637,-0.0679,-0.0695,-0.073,-0.0782,-0.0813,-0.0828,-0.0853,-0.0856,-0.0832,-0.0705,-0.0585,-0.0364,-0.0274,-0.0106,-0.0049,-0.0168,-0.0142,-0.0059,-0.0072,0.0074,0.0075,0.0075,0.0076,0.0076,0,-0.0592,-0.0614,-0.0669,-0.0696,-0.072,-0.0768,-0.0803,-0.0831,-0.0853,-0.0869,-0.0875,-0.0801,-0.0762,-0.0491,-0.0355,-0.0112,-0.0076,-0.0,0.0006,-0.0058,-0.0036,-0.005,-0.0064,0.0077,0.0077,0.0077,0.0077,0,-0.0624,-0.0645,-0.068,-0.072,-0.0761,-0.0807,-0.0847,-0.086,-0.0883,-0.091,-0.0867,-0.0774,-0.0649,-0.0478,-0.0314,-0.0137,-0.0057,0.0006,0.0007,0.0014,-0.0053,-0.0036,-0.0049,0.0078,0.0078,0.0078,0.0078,0,-0.0653,-0.0676,-0.0705,-0.0738,-0.0788,-0.081,-0.084,-0.0846,-0.086,-0.0864,-0.0851,-0.0746,-0.0696,-0.049,-0.0334,-0.018,-0.0117,-0.0055,-0.0049,-0.0049,-0.0136,-0.0243,-0.0125,0,0,0,0,0,-0.067,-0.0676,-0.0713,-0.0738,-0.0785,-0.0802,-0.085,-0.0871,-0.0892,-0.0852,-0.0844,-0.0728,-0.0529,-0.0469,-0.0305,-0.0307,-0.009,-0.0112,-0.0014,0.0086,0.0084,-0.0,0,0,0,0,0,0,-0.0676,-0.0708,-0.0703,-0.072,-0.0736,-0.0776,-0.0803,-0.0824,-0.0795,-0.0809,-0.0702,-0.0684,-0.0488,-0.0608,-0.0299,-0.0262,-0.0176,-0.0034,-0.0031,0.0087,0.0086,0.0084,-0.0003,0,0,0,0,0]}]]